User: anonymous   Login
Location: Unspecified
(0.0000°N, 0.0000°E)
Time: 10:56:55
(UTC+00:00)
Language:

OBJECT PF - Orbit

View from above orbital plane
View from above orbital plane
View from above satellite
View from above satellite

Ground track
Ground track

The orbit data is extracted from the following two-line orbital elements,

1 43591U 98067PF  19111.85311045  .00013907  00000-0  17225-3 0  9992
2 43591  51.6378 274.0288 0005663 295.0566  64.9839 15.60361538 39647
Epoch (UTC): 21 April 2019 20:28:28
Eccentricity: 0.0005663
inclination: 51.6378°
perigee height: 383 km
apogee height: 390 km
right ascension of ascending node: 274.0288°
argument of perigee: 295.0566°
revolutions per day: 15.60361538
mean anomaly at epoch: 64.9839°
orbit number at epoch: 3964

The dashed part of the orbit path shows where the satellite is in the earth's shadow,  

DLR